Regional Weather Roundup
Issued by NWS

Home | Current Version | Previous Version | Text Only | Print | Product List | Glossary Off
Versions: 1 2 3 4 5 6 7 8 9 10 11 12 13 14 15 16 17 18 19 20 21 22 23 24 25 26 27

000
ASUS45 KBOU 260007
RWRCO

WEATHER ROUNDUP FOR COLORADO
NATIONAL WEATHER SERVICE DENVER/BOULDER CO
600 PM MDT SAT MAR 25 2017

NOTE: "FAIR" INDICATES FEW OR NO CLOUDS BELOW 12000 FEET WITH NO
SIGNIFICANT WEATHER AND/OR OBSTRUCTIONS TO VISIBILITY.

COZ001>005-013-030-031-260100-
...NORTHWEST COLORADO...

CITY           SKY/WX    TMP DP  RH WIND       PRES   REMARKS
CRAIG          CLOUDY    55  22  27 SW15G33   29.87R
HAYDEN         FAIR      54  23  30 W12       29.86S
MEEKER         CLOUDY    56  22  26 SW12      29.86S
MOUNT WERNER   NOT AVBL
STEAMBOAT SPGS CLOUDY    52  27  37 W13G18    29.87S
WALDEN         NOT AVBL
$$

COZ006>008-011-260100-
...WEST CENTRAL VALLEYS...

CITY           SKY/WX    TMP DP  RH WIND       PRES   REMARKS
GRAND JUNCTION CLOUDY    60  28  29 W10       29.85R
MONTROSE       CLOUDY    55  27  34 W17G28    29.88S
EAGLE          CLOUDY    59  18  20 W17G23    29.85S
RIFLE          CLOUDY    58  26  29 SW18G24   29.85R
DELTA          CLOUDY    58  27  30 SW15G25   29.89R
NUCLA          CLOUDY    59  21  23 S9        29.92F
$$

COZ017>023-064>068-260100-
...SOUTHWEST COLORADO...

CITY           SKY/WX    TMP DP  RH WIND       PRES   REMARKS
DURANGO        PTSUNNY   59  15  18 SW9       29.88F
CORTEZ         CLOUDY    59  21  23 CALM      29.85F
PAGOSA SPRINGS FAIR      55  16  22 W10       29.94F
TELLURIDE      NOT AVBL
WOLF CREEK PAS CLOUDY    32  12  43 SW12G21   30.12F WCI  23
$$

COZ009-010-012-014-032>034-037-058>063-260100-
...CENTRAL COLORADO...

CITY           SKY/WX    TMP DP  RH WIND       PRES   REMARKS
ASPEN          CLOUDY    55  19  24 NW13G26   29.84F
BUENA VISTA    FAIR      54  15  21 S18G26    29.87F
COPPER MTN     CLOUDY    37  12  35 CALM      30.04F
BERTHOUD PASS  CLOUDY    27  16  63 E9        30.08S WCI  17
COTTONWOOD PAS FAIR      50  14  23 CALM      29.96S
GUNNISON       FAIR      52  23  32 SW9       29.90F
KREMMLING      PTSUNNY   59  14  17 CALM      29.87S
LEADVILLE      CLOUDY    45  12  26 SW7       29.92F
MONARCH PASS   CLOUDY    34  19  55 S15G25    30.15F WCI  24
SALIDA         FAIR      57  17  21 SE9       29.95F
SUNLIGHT       CLOUDY    34  19  55 W9G18     30.05S WCI  26
WILKERSON PASS FAIR      36  18  48 SW5       30.05F
$$

COZ069>075-260100-
...SAN LUIS VALLEY/SANGRE DE CRISTO MOUNTAINS...

CITY           SKY/WX    TMP DP  RH WIND       PRES   REMARKS
ALAMOSA        FAIR      57  20  23 SW16G28   29.89F
LA VETA PASS   NOT AVBL
SAGUACHE       FAIR      54  23  30 SE8       29.91F
$$

COZ035-036-038>040-260100-
...NORTHERN COLORADO FRONT RANGE...

CITY           SKY/WX    TMP DP  RH WIND       PRES   REMARKS
DENVER INTL AP PTSUNNY   56  30  37 SE14      29.84F
DMNS CITY PARK   N/A     58  24  26 E13       29.83F
AURORA         CLOUDY    56  30  37 SE13      29.85F
FRONT RANGE AP PTSUNNY   57  32  38 SE14      29.86F
ERIE MUNI ARPT FAIR      60  13  15 SE13      29.83F
BOULDER MUN AP FAIR      63  18  17 E8        29.83S
CENTENNIAL     CLOUDY    55  28  35 SE9       29.84F
BROOMFIELD     PTSUNNY   59  12  15 E14       29.84F
FORT COLLINS   FAIR      60  25  26 SE16      29.84F
LONGMONT       FAIR      64  17  16 E10       29.85S
$$

COZ041-046-047-076>085-087-088-260100-
...PIKES PEAK/PALMER DIVIDE AND SOUTHERN FOOTHILLS...

CITY           SKY/WX    TMP DP  RH WIND       PRES   REMARKS
COLO. SPRINGS  CLOUDY    54  28  36 S18       29.89F
A. F. ACADEMY  FAIR      52  28  39 SE16      29.87F
SCHRIEVER AFB  FAIR      52  31  45 S15G22    29.90F
ELLICOTT         N/A    N/A N/A N/A S12       29.89F
FALCON         FAIR      49  30  47 S15       29.92F
FORT CARSON    FAIR      56  28  35 SE15      29.87F
LIMON          FAIR      52  27  38 SE13      29.89S
MONUMENT HILL  FAIR      43  30  61 S9        29.91S
TRINIDAD       FAIR      62  34  35 SE6       29.86F
$$

COZ042>045-048>051-090-091-260100-
...NORTHEAST COLORADO...

CITY           SKY/WX    TMP DP  RH WIND       PRES   REMARKS
GREELEY ARPT   FAIR      60  29  30 SE9       29.85S
AKRON          FAIR      57  29  34 SE10      29.86F
BURLINGTON     FAIR      57  35  43 E7        29.88F
WRAY           NOT AVBL
STERLING       FAIR      59  34  38 SE7       29.84F
HOLYOKE        FAIR      59  32  36 SE6       29.88F
FORT MORGAN    FAIR      59  29  32 SE9       29.85F
$$

COZ086-089-092>099-260100-
...SOUTHEAST COLORADO...

CITY           SKY/WX    TMP DP  RH WIND       PRES   REMARKS
PUEBLO         FAIR      62  29  28 SE14      29.83F
LA JUNTA       FAIR      65  24  21 E12       29.83F
LAMAR          FAIR      63  21  20 SE7       29.84F
SPRINGFIELD      N/A     62  21  20 SE9       29.87S
$$




USA.gov is the U.S. government's official web portal to all federal, state and local government web resources and services.